Location: Unspecified
(40.9447°N, 78.9903°W)
Time: 03:41:25
(UTC-05:00)

CZ-3 Stage 3 - Visible Passes

Search period start: 22 January 2019 00:00
Search period end: 01 February 2019 00:00
Orbit: 418 x 34775 km, 30.4° (Epoch: 18 January)

Date Brightness Start Highest point End Pass type
(mag) Time Alt. Az. Time Alt. Az. Time Alt. Az.
22 Jan 8.2 12:16:00 10° W 14:16:05 64° WSW 21:13:30 10° SW visible
23 Jan 7.1 08:33:41 10° SW 14:05:09 66° SE 17:54:52 10° SSE visible
24 Jan 7.4 05:06:49 10° SE 05:26:48 17° E 13:52:45 10° ESE visible
24 Jan 9.9 16:22:11 10° WNW 17:44:27 20° WNW 20:13:50 10° WNW visible
25 Jan 8.2 12:05:51 10° W 14:04:24 64° WSW 21:01:47 10° SW visible
27 Jan 7.3 04:56:16 10° SE 05:15:03 17° E 13:41:45 10° ESE visible
27 Jan 9.9 16:11:12 10° WNW 17:33:01 20° WNW 20:02:18 10° WNW visible
28 Jan 8.1 11:55:43 10° W 13:52:42 64° WSW 20:49:57 10° SW visible
30 Jan 7.2 04:45:46 10° SE 05:03:30 17° E 13:30:45 10° ESE visible
30 Jan 9.8 16:00:17 10° WNW 17:21:36 21° WNW 19:50:36 10° WNW visible
31 Jan 8.1 11:45:37 10° W 13:40:58 64° WSW 20:38:01 10° SW visible
